SCP
0 0 0 0 0 0 0 0 0 0 0 0 0 0 0 0 0 0 0 0 0 0 0 0 0 0 0 0 0 0 0 0 0 0 0 0 0 0 0 0 0 0 0 0 0 0 0 0 0 0 0 0 0 0
0 0 0 0 0 0 0 0 0 0 0 0 0 0 0 0 0 0 0 0 0 0 0 0 0 0 0 0 0 0 0 0 0 0 0 0 0 0 0 0 0 0 0 0 0 0 0 0 0 0 0 0 0 0
0 0 0 0 0 0 0 0 0 0 0 0 0 0 0 0 0 0 0 0 0 0 0 0 0 0 0 0 0 0 0 0 0 0 0 0 0 0 0 0 0 0 0 0 0 0 0 0 0 0 0 0 0 0
0 0 0 0 0 0 0 0 0 0 0 0 0 0 0 0 0 0 0 0 0 0 0 0 -0 0 0 0 0 0 0 0 0 0 0 0 0 0 0 0 0 0 0 0 0 0 0 0 0 0 0 0 0 0
0 0 0 0 0 0 0 0 0 0 0 0 0 0 0 0 0 0 0 0 0 0 0 0 0 0 0 0 0 0 0 0 0 0 0 0 0 0 0 0 0 0 0 0 0 0 0 0 0 0 0 0 0 0
0 0 0 0 0 0 0 0 0 0 0 0 0 0 0 0 0 0 0 0 0 0 0 0 0 0 0 0 0 0 0 0 0 0 0 0 0 0 0 0 0 0 0 0 0 0 0 0 0 0 0 0 0 0
0 0 0 0 0 0 0 0 0 0 0 0 0 0 0 0 0 0 0 0 0 0 0 0 0 0 0 0 0 0 0 0 0 0 0 0 0 0 0 0 0 0 0 0 0 0 0 0 0 0 0 0 0 0
0 0 0 0 0 0 0 0 0 0 0 0 0 0 0 0 0 0 0 0 0 0 0 0 0 0 0 0 0 0 0 0 0 0 0 0 0 0 0 0 0 0 0 0 0 0 0 0 0 0 0 0 0 0
0 0 0 0 0 0 0 0 0 0 0 0 0 0 0 0 0 0 0 0 0 0 0 0 0 0 0 0 0 0 0 0 0 0 0 0 0 0 0 0 0 0 0 0 0 0 0 0 0 0 0 0 0 0
0 0 0 0 0 0 0 0 0 0 0 0 0 0 0 0 0 0 0 0 0 0 0 0 0 0 0 0 0 0 0 0 0 0 0 0 0 0 0 0 0 0 0 0 0 0 0 0 0 -0 0 0 0 0
0 0 0 0 0 0 0 0 0 0 0 0 0 0 0 0 0 0 0 0 0 0 0 0 0 0 0 0 0 0 0 0 0 0 0 0 0 0 0 0 0 0 0 0 0 0 0 -0 -0 0 0 0 0 0
0 0 0 0 0 0 0 0 0 0 0 0 0 0 0 0 0 0 0 0 0 0 0 0 0 0 0 0 0 0 0 0 0 0 0 0 0 0 0 0 0 -0 0 0 0 -0 -0 -0 0 0 0 0 0 0
0 0 0 0 0 0 0 0 0 0 0 0 0 0 0 0 0 0 0 0 0 0 0 0 0 0 0 0 0 0 0 0 0 0 0 0 0 0 0 0 -0 0 -0 -0 -0 -0 -0 0 0 0 0 0 0 0
0 0 0 0 0 0 0 0 0 0 0 0 0 0 0 0 0 0 0 0 0 0 0 0 0 0 0 0 0 0 0 0 0 0 0 0 0 0 -0 0 0 -0 -0 -0 0 0 0 0 0 0 0 0 0 0
0 0 0 0 0 0 0 0 0 0 0 0 0 0 0 0 0 0 0 0 0 0 0 0 0 0 0 0 0 0 0 0 0 0 0 0 0 -0 -0 0 0 0 -0 0 0 0 -0 -0 -0 0 0 0 0 0
0 0 0 0 0 0 0 0 0 0 0 0 0 0 0 0 0 0 0 0 0 0 0 0 0 0 0 0 0 0 0 0 0 0 0 0 -0 -0 -0 -0 -0 -0 -0 0 -0 -0 -0 -0 0 0 0 0 0 0
0 0 -0 0 0 0 0 0 0 0 0 0 0 0 0 0 0 0 0 0 0 0 0 0 0 0 0 0 0 0 0 0 0 0 -0 -0 -0 -0 -0 -0 0 0 -0 -0 -0 -0 -0 0 0 0 0 0 0 0
0 0 0 0 0 0 0 0 0 0 0 0 0 0 0 0 0 0 0 0 0 0 0 0 0 0 0 0 0 0 0 0 -0 -0 -0 -0 -0 -0 0 0 -0 -0 -0 -0 -0 -0 0 0 0 0 0 0 0 0
0 0 0 0 0 0 0 0 0 0 0 0 0 0 0 0 0 0 0 0 0 0 0 0 0 -0 -0 -0 -0 -0 -0 -0 0 0 -0 0 0 0 0 0 0 -0 0 -0 -0 0 0 0 0 0 0 0 0 0
0 0 0 0 0 0 0 0 0 0 0 0 0 0 0 0 0 0 0 0 0 -0 -0 -0 -0 -0 -0 0 -0 -0 0 0 0 0 0 0 0 0 0 0 0 -0 -0 -0 0 0 0 0 0 0 0 0 0 0
0 0 0 0 0 0 0 0 0 0 0 0 0 0 0 0 -0 -0 -0 -0 -0 -0 -0 0 0 0 0 -0 -0 0 0 0 0 0 0 0 0 0 0 0 0 0 -0 -0 0 -0 -0 0 0 0 0 0 0 0
0 0 0 0 0 0 0 0 0 0 0 -0 -0 -0 -0 -0 -0 -0 -0 -0 -0 0 0 0 0 0 0 0 0 0 0 0 0 0 0 0 0 0 -0 0 0 0 -0 -0 0 0 -0 -0 -0 0 0 0 0 0
0 0 0 0 0 0 0 0 0 -0 -0 -0 -0 -0 -0 -0 -0 0 -0 0 0 0 0 -0 0 -0 -0 -0 -0 0 0 0 0 0 0 0 -0 0 0 0 0 -0 -0 -0 -0 -0 -0 -0 -0 0 0 0 0 0
0 0 -0 -0 -0 -0 -0 -0 -0 -0 -0 -0 -0 -0 -0 0 0 0 0 -0 0 -0 -0 -0 -0 -0 -0 -0 -0 -0 -0 0 0 -0 -0 -0 -0 0 0 0 0 0 0 -0 -0 0 -0 -0 -0 -0 0 0 0 0
-0 -0 -0 -0 -0 -0 -0 -0 -0 -0 -0 -0 -0 -0 0 0 0 0 0 -0 -0 -0 -0 -0 -0 -0 0 0 0 0 0 -0 -0 -0 0 -0 0 0 0 0 0 0 0 0 0 -0 -0 -0 -0 -0 0 0 0 0
-0 -0 -0 -0 -0 -0 -0 -0 -0 -0 0 0 0 0 0 0 0 0 0 -0 -0 0 -0 -0 0 0 0 0 0 0 -0 0 0 0 0 -0 -0 0 0 0 0 0 0 0 0 0 -0 -0 -0 -0 0 0 0 0
-0 -0 -0 0 0 0 0 0 -0 0 0 0 0 0 0 0 0 0 -0 -0 -0 -0 0 0 0 0 0 0 0 0 0 0 -0 -0 -0 -0 0 0 0 0 -0 0 0 0 0 -0 -0 -0 -0 -0 -0 0 0 0
-0 0 0 0 0 0 0 -0 -0 0 0 0 0 0 0 0 0 0 0 -0 -0 0 0 0 0 0 0 0 0 -0 -0 0 0 0 0 0 0 0 0 0 0 0 0 0 -0 -0 -0 -0 -0 -0 0 0 0 0
0 0 0 -0 -0 0 -0 0 -0 -0 0 0 0 0 -0 0 0 0 0 0 0 0 0 0 0 0 0 -0 0 0 -0 -0 -0 -0 0 -0 -0 0 0 0 0 0 -0 0 -0 -0 -0 -0 -0 -0 0 0 0 0
0 0 -0 -0 -0 0 -0 0 -0 -0 0 0 0 0 0 0 0 -0 0 0 0 0 0 0 0 0 -0 -0 -0 0 0 -0 -0 -0 0 -0 -0 0 -0 -0 -0 -0 0 -0 0 0 0 -0 -0 -0 -0 -0 -0 -0
0 0 -0 0 0 0 0 -0 0 0 0 -0 -0 0 0 0 0 0 0 0 0 0 0 0 0 0 0 0 -0 -0 -0 0 0 0 0 -0 -0 -0 -0 -0 -0 -0 -0 -0 0 0 0 -0 0 0 0 0 0 0
0 0 0 0 0 0 0 -0 0 0 0 0 0 0 0 0 0 0 0 0 0 -0 0 0 -0 -0 0 0 0 -0 0 0 0 0 -0 0 0 -0 -0 -0 0 0 0 0 0 0 0 0 0 0 0 0 0 0
0 -0 -0 0 0 0 0 0 0 0 0 0 0 0 0 0 0 0 0 0 0 0 0 0 -0 -0 -0 -0 -0 -0 0 0 -0 -0 -0 -0 -0 -0 -0 0 0 0 0 0 0 0 0 0 0 0 0 0 0 0
Wind_Speed_500mb
69 84 79 76 72 70 63 56 50 45 39 33 28 22 18 12 7 8 10 7 5 7 17 19 15 14 9 7 5 4 6 1 0 5 4 2 4 1 5 5 4 7 10 9 9 9 15 2 5 10 8 10 10 11
63 61 91 72 70 70 65 58 53 49 43 36 31 26 22 17 9 7 8 11 11 14 16 26 32 38 36 26 11 7 2 2 2 4 2 1 4 4 3 7 5 7 9 4 12 6 3 4 11 19 18 16 12 13
52 45 46 82 74 70 66 62 58 53 47 40 35 29 24 20 12 8 10 11 12 12 20 7 5 4 7 15 28 16 10 10 6 5 4 2 6 2 7 7 7 6 7 8 6 6 14 16 21 25 20 23 18 16
64 66 49 62 81 73 69 65 62 57 50 44 34 30 24 21 13 7 10 11 12 8 6 5 3 5 20 27 22 31 12 14 11 7 2 2 2 9 7 8 10 18 9 14 23 32 33 37 20 16 22 24 18 14
41 61 52 53 60 79 71 64 61 59 52 44 36 32 27 24 17 10 12 16 17 8 5 15 34 3 8 18 22 24 49 27 1 1 2 2 6 6 6 7 22 28 29 18 18 34 31 38 30 28 30 23 19 31
30 42 64 51 50 68 69 69 65 61 53 45 39 32 29 26 19 13 9 14 22 16 4 5 9 3 14 8 21 25 32 26 14 6 6 6 9 5 5 7 17 24 26 28 35 22 28 33 38 41 31 18 23 25
36 36 44 47 51 62 63 68 67 60 51 48 43 37 34 26 23 12 6 5 14 18 4 8 9 4 7 6 13 18 26 11 12 8 8 8 7 9 5 14 21 14 21 27 31 32 28 31 26 22 20 10 18 18
46 40 31 49 43 50 57 56 63 54 49 44 40 37 35 29 28 17 14 13 20 9 3 3 5 6 1 4 7 12 13 14 10 7 5 6 5 6 10 31 31 27 24 24 21 22 39 34 18 14 1 15 17 16
38 45 43 41 44 42 47 54 53 57 49 39 43 43 36 26 17 18 20 16 17 7 3 5 4 3 2 3 5 6 9 5 4 7 7 9 6 12 22 22 27 33 26 29 23 20 8 6 12 12 19 20 15 7
45 44 45 41 47 47 44 48 47 52 44 55 57 19 13 22 24 25 15 15 15 9 9 8 7 4 2 4 3 6 1 3 3 4 8 6 11 37 38 35 30 32 31 20 16 7 6 12 18 26 21 7 12 2
50 47 52 50 42 47 50 41 39 52 62 61 19 11 34 41 14 8 7 8 9 6 10 9 19 6 7 5 5 5 4 2 4 3 4 5 6 4 14 14 20 33 37 17 21 8 6 8 19 15 6 8 6 2
46 41 39 45 48 44 54 41 47 70 53 46 34 47 40 10 6 6 7 7 9 7 11 9 10 16 6 9 5 7 4 5 6 8 4 5 5 19 18 20 28 42 27 9 19 16 23 19 18 10 13 12 6 7
44 51 47 44 46 48 54 53 54 72 66 53 17 13 14 9 8 12 15 8 7 11 16 14 10 11 8 10 5 5 7 5 4 5 6 5 12 20 13 20 35 23 3 27 35 30 27 22 18 18 16 14 10 10
44 52 48 43 47 51 50 80 86 78 46 12 12 13 10 10 11 10 9 8 13 11 24 20 11 7 6 7 4 5 2 3 5 7 5 3 15 19 16 28 13 20 30 35 31 29 30 29 26 22 18 14 14 14
49 57 54 46 48 50 84 88 88 64 16 10 10 9 10 8 8 12 15 9 10 18 27 16 9 4 3 4 3 1 6 6 7 3 3 10 18 15 3 16 5 23 28 25 29 24 24 22 21 19 15 15 17 18
48 45 47 48 49 87 97 94 60 33 11 7 7 8 7 14 11 12 16 11 16 30 19 8 6 5 5 3 7 10 5 8 1 2 8 23 20 17 11 14 5 1 17 18 23 18 17 15 17 15 15 15 15 14
50 22 50 68 112 119 92 71 34 13 8 8 7 11 12 13 17 14 19 22 29 27 5 6 7 5 6 5 6 6 7 3 5 11 20 18 15 15 5 23 21 15 9 18 24 20 13 13 15 14 13 10 10 13
56 60 94 122 117 86 56 26 14 9 6 6 10 17 13 17 23 21 17 30 22 13 14 5 11 8 7 6 5 2 7 8 14 23 19 14 17 9 23 21 8 19 17 21 23 22 13 14 14 10 6 4 2 3
118 122 123 116 81 48 13 8 7 8 6 11 19 20 19 19 19 22 24 29 16 16 14 9 4 4 4 4 9 18 11 19 23 21 15 17 23 13 3 9 18 17 19 27 23 19 16 15 11 9 7 5 2 3
108 105 87 70 49 15 11 9 9 10 8 7 15 17 16 14 20 21 22 20 19 12 6 5 7 11 7 17 13 15 16 12 16 15 19 23 11 24 14 17 20 21 27 22 20 19 17 13 10 5 4 6 3 1
81 62 48 40 31 17 12 10 7 10 14 9 18 16 10 17 13 11 12 19 8 6 7 14 17 18 20 20 24 23 28 22 21 21 16 28 26 13 17 18 20 18 20 20 17 16 12 12 9 7 9 7 4 5
49 39 34 19 11 10 12 9 14 15 8 14 12 9 9 9 10 10 16 8 7 13 15 16 14 12 11 9 10 11 18 18 7 2 24 31 15 13 19 20 20 21 21 20 17 11 11 13 9 10 10 8 10 8
35 25 16 10 9 9 7 7 5 5 6 8 9 7 5 6 7 17 7 9 9 10 12 14 12 12 16 17 15 12 6 1 11 20 16 15 17 17 21 21 21 21 22 17 10 6 10 8 8 7 7 6 3 8
13 8 6 7 9 7 9 5 6 7 8 5 5 6 7 8 13 8 4 5 6 4 5 12 16 19 19 15 15 11 14 15 25 18 14 12 18 20 23 22 19 14 16 14 9 8 11 10 8 7 6 6 7 5
5 6 6 8 6 7 7 6 5 4 5 4 5 4 7 8 6 6 3 5 7 1 9 13 14 13 15 13 10 10 18 25 33 27 21 19 14 22 22 19 12 18 13 16 11 9 12 15 10 9 6 5 6 11
6 2 3 5 5 3 8 7 7 7 7 6 4 7 4 4 4 4 6 10 3 6 10 13 5 1 5 7 6 10 14 20 30 32 24 19 18 19 17 18 21 15 17 13 11 9 11 14 10 8 12 13 7 7
5 5 3 4 6 7 7 9 8 5 4 5 7 7 6 2 3 4 9 7 2 8 9 6 4 6 12 14 9 12 20 28 28 25 21 16 14 15 15 12 16 14 14 15 8 11 9 13 8 6 4 8 10 11
2 3 5 8 5 4 6 5 5 3 5 8 13 7 5 2 2 5 5 2 9 6 5 9 13 11 9 9 13 13 22 23 19 17 24 22 17 15 15 14 11 16 13 10 15 9 9 10 9 4 5 3 6 7
2 9 8 5 5 6 5 4 4 4 7 11 3 4 5 6 6 3 3 5 5 4 16 19 6 10 22 29 24 23 24 23 21 23 22 18 18 17 15 14 16 11 14 14 10 9 8 7 8 7 5 5 4 7
5 11 2 3 2 4 4 7 8 12 11 10 7 8 6 5 3 5 8 4 8 29 21 3 8 24 24 21 23 21 18 12 8 9 14 17 12 14 16 13 11 11 14 13 12 12 10 7 7 11 12 14 15 18
12 7 7 8 4 4 18 21 17 13 8 6 5 6 7 5 4 6 7 10 25 30 13 6 15 21 18 12 11 5 8 12 13 13 11 12 11 13 14 16 13 9 5 10 18 18 17 14 13 12 13 16 18 25
6 5 11 4 6 15 13 5 5 6 5 5 6 6 3 2 4 5 6 8 26 25 14 9 15 18 12 9 9 8 7 11 13 6 9 11 9 13 13 14 11 9 10 12 13 10 9 11 15 16 10 17 23 13
12 16 17 13 9 7 6 5 4 4 3 3 3 2 2 3 4 3 6 6 13 20 22 21 17 15 15 8 11 13 14 15 15 12 13 7 1 4 9 6 10 8 6 7 11 11 12 12 7 10 14 19 22 24
Wind_Direction_500mb
236 229 234 230 230 230 229 228 228 230 233 235 242 243 236 231 264 314 321 306 260 247 271 258 231 203 210 209 236 341 296 131 147 194 220 186 234 154 267 253 232 207 186 202 202 233 260 150 190 241 358 322 298 255
230 230 223 229 226 227 225 225 226 226 228 229 234 237 233 232 234 283 295 287 269 248 266 277 269 262 253 242 224 232 249 290 239 110 177 163 225 226 269 276 187 240 237 271 219 243 11 276 297 300 293 288 290 245
227 232 233 216 224 221 221 219 221 223 225 226 223 230 233 239 231 254 275 275 274 281 299 289 207 207 233 220 225 213 223 211 183 143 141 100 248 186 268 252 289 237 211 246 279 217 241 256 295 293 278 275 276 271
235 233 241 220 212 212 216 214 215 217 220 223 217 220 235 237 238 277 286 261 245 274 284 278 135 168 275 263 263 233 174 162 133 107 150 164 234 208 253 288 264 271 270 264 271 277 283 278 282 305 302 290 263 202
234 221 227 234 221 211 208 209 213 215 215 215 210 215 221 217 224 239 276 251 226 239 271 288 299 270 286 252 228 213 207 211 69 37 164 249 260 255 259 275 263 244 250 249 261 278 279 286 289 299 298 283 222 195
231 214 204 214 220 210 210 203 209 213 211 209 209 212 208 212 213 200 242 244 225 211 275 300 304 292 335 263 201 197 200 208 212 206 205 223 224 219 269 268 262 251 262 258 252 281 288 264 278 312 297 271 212 194
220 201 205 214 208 214 213 202 206 208 207 208 210 205 205 207 199 178 202 166 163 168 224 294 308 296 351 121 147 168 182 185 188 210 215 232 210 189 252 255 270 284 286 277 274 280 271 270 285 300 298 241 188 164
228 223 204 205 209 198 197 201 203 203 202 205 204 203 195 187 178 177 160 142 151 161 220 286 280 312 24 201 142 153 161 190 201 204 185 199 154 206 255 245 270 292 303 300 283 268 265 273 274 288 280 152 152 137
221 226 221 218 210 203 196 196 202 203 202 198 188 174 160 169 170 183 187 193 185 199 204 193 254 167 351 152 129 135 166 168 204 224 202 172 177 226 247 275 294 304 293 288 306 302 327 187 189 175 146 131 116 71
214 213 210 210 213 203 202 196 197 192 187 177 156 133 151 159 145 138 138 168 191 221 225 235 200 242 327 236 116 133 103 219 234 165 144 216 255 264 276 283 299 323 313 265 245 229 129 132 147 144 139 70 17 47
212 213 206 204 199 198 203 191 186 187 177 151 136 105 135 134 125 146 144 175 180 228 215 225 204 225 222 240 138 179 180 211 248 159 235 234 256 284 331 333 336 342 342 289 218 247 156 149 151 167 179 165 132 79
213 205 198 200 199 202 205 190 194 185 164 165 146 129 132 135 136 176 190 156 204 231 195 190 192 195 206 195 186 182 200 171 233 150 236 251 255 323 319 327 333 329 317 255 185 164 127 130 138 162 138 130 90 22
211 208 207 195 195 200 194 198 193 174 164 135 109 130 147 146 176 200 186 190 201 194 182 171 161 163 169 194 122 190 209 226 139 196 227 242 320 339 344 341 336 334 133 142 131 125 128 128 126 127 127 111 62 51
210 199 199 202 199 190 194 191 175 163 153 103 132 139 189 174 214 191 197 168 199 179 162 159 134 193 172 172 141 214 129 207 241 227 218 79 342 345 11 10 40 94 129 121 121 141 137 135 125 120 113 86 63 78
196 193 198 193 194 186 184 179 167 159 103 117 153 162 177 178 171 182 185 143 153 152 152 139 114 167 132 153 204 203 207 243 237 240 89 342 336 338 192 359 11 97 126 139 151 146 140 138 136 129 117 86 71 77
183 179 191 187 184 177 175 159 150 138 81 112 169 135 135 155 154 155 169 189 177 162 146 133 125 169 178 212 198 219 217 233 247 222 301 320 327 323 233 203 166 15 188 163 165 157 149 145 145 135 121 93 71 67
162 192 187 177 166 161 153 147 123 73 101 162 163 168 152 146 163 162 163 168 164 160 148 142 154 173 125 215 233 202 223 194 203 310 324 318 299 296 241 244 260 217 191 180 179 173 165 150 146 140 124 105 76 54
164 158 165 158 148 139 126 104 79 112 156 142 143 152 158 142 147 147 155 163 157 166 147 161 136 196 210 219 223 231 255 265 286 300 287 305 316 213 311 294 256 194 198 188 175 174 168 151 142 138 128 148 119 47
141 149 155 157 148 116 83 77 87 99 90 114 129 136 130 131 136 142 149 161 155 162 151 153 211 222 238 267 304 318 309 305 298 294 286 313 303 251 249 151 142 143 156 157 162 169 157 149 155 145 129 133 135 56
144 145 144 138 111 92 95 94 95 102 137 137 121 128 129 129 144 149 152 162 161 154 164 201 219 202 249 273 282 285 287 304 305 302 309 315 204 146 126 141 140 147 152 153 161 159 158 152 140 159 243 270 268 121
131 100 104 118 80 69 89 115 90 100 116 104 132 133 125 142 136 150 162 170 181 207 221 224 227 257 266 286 257 274 298 298 303 301 286 150 145 120 141 137 138 150 161 162 157 171 193 186 151 105 108 78 28 148
111 115 106 88 80 73 69 63 116 115 102 127 123 122 126 148 158 168 163 179 227 234 224 246 274 282 277 293 306 275 290 291 228 283 124 164 179 155 148 148 162 154 154 152 145 136 139 170 166 141 130 105 68 106
115 93 66 66 83 77 108 104 105 89 111 123 122 124 134 140 152 159 206 216 229 228 243 259 268 286 299 303 300 276 251 147 174 177 160 159 161 163 166 163 159 164 168 178 162 180 190 176 179 208 201 196 118 84
102 68 71 67 69 101 124 84 90 102 110 126 139 136 154 141 161 209 237 204 183 200 281 291 287 296 302 293 284 267 217 175 183 170 160 160 163 166 162 172 174 176 168 166 164 179 200 197 192 190 201 227 233 224
69 44 88 63 102 131 118 124 106 105 111 141 140 141 149 167 190 201 218 178 175 298 340 326 301 303 305 308 288 247 203 182 195 194 172 167 157 146 165 181 197 165 179 197 184 202 202 197 214 213 257 296 279 239
71 52 64 113 142 160 150 135 158 140 135 141 136 128 134 155 194 213 170 180 196 325 335 336 316 305 57 32 102 136 161 179 174 179 180 180 168 176 177 183 181 185 179 178 185 199 200 201 218 255 248 264 263 214
70 71 81 114 113 126 105 91 117 127 135 135 147 159 174 135 220 139 174 175 24 318 325 340 106 104 51 54 109 134 143 151 152 156 166 167 164 176 188 181 189 182 182 175 181 190 186 200 197 216 243 256 251 238
71 76 114 147 136 109 114 120 137 134 129 144 144 159 182 209 115 152 166 277 321 320 337 175 159 88 18 146 128 134 154 157 161 158 151 153 156 174 171 166 157 176 177 180 175 192 227 221 220 216 326 291 216 203
100 134 125 91 85 72 59 42 94 88 121 160 155 128 142 141 165 164 308 318 332 182 131 124 29 14 112 118 116 105 113 147 170 168 171 180 183 175 171 170 166 193 197 187 193 210 204 232 259 266 252 248 284 267
138 160 100 142 182 91 69 57 94 110 109 114 121 132 153 145 116 9 311 236 195 160 164 149 39 136 124 117 120 114 103 94 135 178 174 164 171 169 170 181 199 194 198 195 195 201 210 238 249 257 270 299 300 301
138 131 86 43 58 78 125 119 102 91 91 76 99 130 150 144 117 51 2 146 152 167 161 78 122 145 151 148 135 115 113 134 115 119 140 159 169 186 187 186 196 201 153 187 213 227 246 259 256 269 280 298 311 311
117 90 119 105 70 119 130 98 81 76 75 101 95 108 124 111 97 69 41 110 179 205 199 164 142 142 134 93 88 94 113 146 146 165 145 137 132 175 204 214 227 251 248 220 207 215 231 254 260 267 299 327 304 291
102 101 108 125 157 179 174 136 108 111 76 60 68 65 74 82 97 117 177 102 137 173 173 158 159 160 148 135 87 86 95 113 120 133 156 160 182 1 31 171 198 206 236 250 235 237 264 276 302 309 305 324 311 300
Wind_Speed_850mb
69 84 79 76 72 70 63 56 50 45 39 33 28 22 18 12 7 8 10 7 5 7 17 19 15 14 9 7 5 4 6 1 0 5 4 2 4 1 5 5 4 7 10 9 9 9 15 2 5 10 8 10 10 11
63 61 91 72 70 70 65 58 53 49 43 36 31 26 22 17 9 7 8 11 11 14 16 26 32 38 36 26 11 7 2 2 2 4 2 1 4 4 3 7 5 7 9 4 12 6 3 4 11 19 18 16 12 13
52 45 46 82 74 70 66 62 58 53 47 40 35 29 24 20 12 8 10 11 12 12 20 7 5 4 7 15 28 16 10 10 6 5 4 2 6 2 7 7 7 6 7 8 6 6 14 16 21 25 20 23 18 16
64 66 49 62 81 73 69 65 62 57 50 44 34 30 24 21 13 7 10 11 12 8 6 5 3 5 20 27 22 31 12 14 11 7 2 2 2 9 7 8 10 18 9 14 23 32 33 37 20 16 22 24 18 14
41 61 52 53 60 79 71 64 61 59 52 44 36 32 27 24 17 10 12 16 17 8 5 15 34 3 8 18 22 24 49 27 1 1 2 2 6 6 6 7 22 28 29 18 18 34 31 38 30 28 30 23 19 31
30 42 64 51 50 68 69 69 65 61 53 45 39 32 29 26 19 13 9 14 22 16 4 5 9 3 14 8 21 25 32 26 14 6 6 6 9 5 5 7 17 24 26 28 35 22 28 33 38 41 31 18 23 25
36 36 44 47 51 62 63 68 67 60 51 48 43 37 34 26 23 12 6 5 14 18 4 8 9 4 7 6 13 18 26 11 12 8 8 8 7 9 5 14 21 14 21 27 31 32 28 31 26 22 20 10 18 18
46 40 31 49 43 50 57 56 63 54 49 44 40 37 35 29 28 17 14 13 20 9 3 3 5 6 1 4 7 12 13 14 10 7 5 6 5 6 10 31 31 27 24 24 21 22 39 34 18 14 1 15 17 16
38 45 43 41 44 42 47 54 53 57 49 39 43 43 36 26 17 18 20 16 17 7 3 5 4 3 2 3 5 6 9 5 4 7 7 9 6 12 22 22 27 33 26 29 23 20 8 6 12 12 19 20 15 7
45 44 45 41 47 47 44 48 47 52 44 55 57 19 13 22 24 25 15 15 15 9 9 8 7 4 2 4 3 6 1 3 3 4 8 6 11 37 38 35 30 32 31 20 16 7 6 12 18 26 21 7 12 2
50 47 52 50 42 47 50 41 39 52 62 61 19 11 34 41 14 8 7 8 9 6 10 9 19 6 7 5 5 5 4 2 4 3 4 5 6 4 14 14 20 33 37 17 21 8 6 8 19 15 6 8 6 2
46 41 39 45 48 44 54 41 47 70 53 46 34 47 40 10 6 6 7 7 9 7 11 9 10 16 6 9 5 7 4 5 6 8 4 5 5 19 18 20 28 42 27 9 19 16 23 19 18 10 13 12 6 7
44 51 47 44 46 48 54 53 54 72 66 53 17 13 14 9 8 12 15 8 7 11 16 14 10 11 8 10 5 5 7 5 4 5 6 5 12 20 13 20 35 23 3 27 35 30 27 22 18 18 16 14 10 10
44 52 48 43 47 51 50 80 86 78 46 12 12 13 10 10 11 10 9 8 13 11 24 20 11 7 6 7 4 5 2 3 5 7 5 3 15 19 16 28 13 20 30 35 31 29 30 29 26 22 18 14 14 14
49 57 54 46 48 50 84 88 88 64 16 10 10 9 10 8 8 12 15 9 10 18 27 16 9 4 3 4 3 1 6 6 7 3 3 10 18 15 3 16 5 23 28 25 29 24 24 22 21 19 15 15 17 18
48 45 47 48 49 87 97 94 60 33 11 7 7 8 7 14 11 12 16 11 16 30 19 8 6 5 5 3 7 10 5 8 1 2 8 23 20 17 11 14 5 1 17 18 23 18 17 15 17 15 15 15 15 14
50 22 50 68 112 119 92 71 34 13 8 8 7 11 12 13 17 14 19 22 29 27 5 6 7 5 6 5 6 6 7 3 5 11 20 18 15 15 5 23 21 15 9 18 24 20 13 13 15 14 13 10 10 13
56 60 94 122 117 86 56 26 14 9 6 6 10 17 13 17 23 21 17 30 22 13 14 5 11 8 7 6 5 2 7 8 14 23 19 14 17 9 23 21 8 19 17 21 23 22 13 14 14 10 6 4 2 3
118 122 123 116 81 48 13 8 7 8 6 11 19 20 19 19 19 22 24 29 16 16 14 9 4 4 4 4 9 18 11 19 23 21 15 17 23 13 3 9 18 17 19 27 23 19 16 15 11 9 7 5 2 3
108 105 87 70 49 15 11 9 9 10 8 7 15 17 16 14 20 21 22 20 19 12 6 5 7 11 7 17 13 15 16 12 16 15 19 23 11 24 14 17 20 21 27 22 20 19 17 13 10 5 4 6 3 1
81 62 48 40 31 17 12 10 7 10 14 9 18 16 10 17 13 11 12 19 8 6 7 14 17 18 20 20 24 23 28 22 21 21 16 28 26 13 17 18 20 18 20 20 17 16 12 12 9 7 9 7 4 5
49 39 34 19 11 10 12 9 14 15 8 14 12 9 9 9 10 10 16 8 7 13 15 16 14 12 11 9 10 11 18 18 7 2 24 31 15 13 19 20 20 21 21 20 17 11 11 13 9 10 10 8 10 8
35 25 16 10 9 9 7 7 5 5 6 8 9 7 5 6 7 17 7 9 9 10 12 14 12 12 16 17 15 12 6 1 11 20 16 15 17 17 21 21 21 21 22 17 10 6 10 8 8 7 7 6 3 8
13 8 6 7 9 7 9 5 6 7 8 5 5 6 7 8 13 8 4 5 6 4 5 12 16 19 19 15 15 11 14 15 25 18 14 12 18 20 23 22 19 14 16 14 9 8 11 10 8 7 6 6 7 5
5 6 6 8 6 7 7 6 5 4 5 4 5 4 7 8 6 6 3 5 7 1 9 13 14 13 15 13 10 10 18 25 33 27 21 19 14 22 22 19 12 18 13 16 11 9 12 15 10 9 6 5 6 11
6 2 3 5 5 3 8 7 7 7 7 6 4 7 4 4 4 4 6 10 3 6 10 13 5 1 5 7 6 10 14 20 30 32 24 19 18 19 17 18 21 15 17 13 11 9 11 14 10 8 12 13 7 7
5 5 3 4 6 7 7 9 8 5 4 5 7 7 6 2 3 4 9 7 2 8 9 6 4 6 12 14 9 12 20 28 28 25 21 16 14 15 15 12 16 14 14 15 8 11 9 13 8 6 4 8 10 11
2 3 5 8 5 4 6 5 5 3 5 8 13 7 5 2 2 5 5 2 9 6 5 9 13 11 9 9 13 13 22 23 19 17 24 22 17 15 15 14 11 16 13 10 15 9 9 10 9 4 5 3 6 7
2 9 8 5 5 6 5 4 4 4 7 11 3 4 5 6 6 3 3 5 5 4 16 19 6 10 22 29 24 23 24 23 21 23 22 18 18 17 15 14 16 11 14 14 10 9 8 7 8 7 5 5 4 7
5 11 2 3 2 4 4 7 8 12 11 10 7 8 6 5 3 5 8 4 8 29 21 3 8 24 24 21 23 21 18 12 8 9 14 17 12 14 16 13 11 11 14 13 12 12 10 7 7 11 12 14 15 18
12 7 7 8 4 4 18 21 17 13 8 6 5 6 7 5 4 6 7 10 25 30 13 6 15 21 18 12 11 5 8 12 13 13 11 12 11 13 14 16 13 9 5 10 18 18 17 14 13 12 13 16 18 25
6 5 11 4 6 15 13 5 5 6 5 5 6 6 3 2 4 5 6 8 26 25 14 9 15 18 12 9 9 8 7 11 13 6 9 11 9 13 13 14 11 9 10 12 13 10 9 11 15 16 10 17 23 13
12 16 17 13 9 7 6 5 4 4 3 3 3 2 2 3 4 3 6 6 13 20 22 21 17 15 15 8 11 13 14 15 15 12 13 7 1 4 9 6 10 8 6 7 11 11 12 12 7 10 14 19 22 24
Wind_Direction_850mb
236 229 234 230 230 230 229 228 228 230 233 235 242 243 236 231 264 314 321 306 260 247 271 258 231 203 210 209 236 341 296 131 147 194 220 186 234 154 267 253 232 207 186 202 202 233 260 150 190 241 358 322 298 255
230 230 223 229 226 227 225 225 226 226 228 229 234 237 233 232 234 283 295 287 269 248 266 277 269 262 253 242 224 232 249 290 239 110 177 163 225 226 269 276 187 240 237 271 219 243 11 276 297 300 293 288 290 245
227 232 233 216 224 221 221 219 221 223 225 226 223 230 233 239 231 254 275 275 274 281 299 289 207 207 233 220 225 213 223 211 183 143 141 100 248 186 268 252 289 237 211 246 279 217 241 256 295 293 278 275 276 271
235 233 241 220 212 212 216 214 215 217 220 223 217 220 235 237 238 277 286 261 245 274 284 278 135 168 275 263 263 233 174 162 133 107 150 164 234 208 253 288 264 271 270 264 271 277 283 278 282 305 302 290 263 202
234 221 227 234 221 211 208 209 213 215 215 215 210 215 221 217 224 239 276 251 226 239 271 288 299 270 286 252 228 213 207 211 69 37 164 249 260 255 259 275 263 244 250 249 261 278 279 286 289 299 298 283 222 195
231 214 204 214 220 210 210 203 209 213 211 209 209 212 208 212 213 200 242 244 225 211 275 300 304 292 335 263 201 197 200 208 212 206 205 223 224 219 269 268 262 251 262 258 252 281 288 264 278 312 297 271 212 194
220 201 205 214 208 214 213 202 206 208 207 208 210 205 205 207 199 178 202 166 163 168 224 294 308 296 351 121 147 168 182 185 188 210 215 232 210 189 252 255 270 284 286 277 274 280 271 270 285 300 298 241 188 164
228 223 204 205 209 198 197 201 203 203 202 205 204 203 195 187 178 177 160 142 151 161 220 286 280 312 24 201 142 153 161 190 201 204 185 199 154 206 255 245 270 292 303 300 283 268 265 273 274 288 280 152 152 137
221 226 221 218 210 203 196 196 202 203 202 198 188 174 160 169 170 183 187 193 185 199 204 193 254 167 351 152 129 135 166 168 204 224 202 172 177 226 247 275 294 304 293 288 306 302 327 187 189 175 146 131 116 71
214 213 210 210 213 203 202 196 197 192 187 177 156 133 151 159 145 138 138 168 191 221 225 235 200 242 327 236 116 133 103 219 234 165 144 216 255 264 276 283 299 323 313 265 245 229 129 132 147 144 139 70 17 47
212 213 206 204 199 198 203 191 186 187 177 151 136 105 135 134 125 146 144 175 180 228 215 225 204 225 222 240 138 179 180 211 248 159 235 234 256 284 331 333 336 342 342 289 218 247 156 149 151 167 179 165 132 79
213 205 198 200 199 202 205 190 194 185 164 165 146 129 132 135 136 176 190 156 204 231 195 190 192 195 206 195 186 182 200 171 233 150 236 251 255 323 319 327 333 329 317 255 185 164 127 130 138 162 138 130 90 22
211 208 207 195 195 200 194 198 193 174 164 135 109 130 147 146 176 200 186 190 201 194 182 171 161 163 169 194 122 190 209 226 139 196 227 242 320 339 344 341 336 334 133 142 131 125 128 128 126 127 127 111 62 51
210 199 199 202 199 190 194 191 175 163 153 103 132 139 189 174 214 191 197 168 199 179 162 159 134 193 172 172 141 214 129 207 241 227 218 79 342 345 11 10 40 94 129 121 121 141 137 135 125 120 113 86 63 78
196 193 198 193 194 186 184 179 167 159 103 117 153 162 177 178 171 182 185 143 153 152 152 139 114 167 132 153 204 203 207 243 237 240 89 342 336 338 192 359 11 97 126 139 151 146 140 138 136 129 117 86 71 77
183 179 191 187 184 177 175 159 150 138 81 112 169 135 135 155 154 155 169 189 177 162 146 133 125 169 178 212 198 219 217 233 247 222 301 320 327 323 233 203 166 15 188 163 165 157 149 145 145 135 121 93 71 67
162 192 187 177 166 161 153 147 123 73 101 162 163 168 152 146 163 162 163 168 164 160 148 142 154 173 125 215 233 202 223 194 203 310 324 318 299 296 241 244 260 217 191 180 179 173 165 150 146 140 124 105 76 54
164 158 165 158 148 139 126 104 79 112 156 142 143 152 158 142 147 147 155 163 157 166 147 161 136 196 210 219 223 231 255 265 286 300 287 305 316 213 311 294 256 194 198 188 175 174 168 151 142 138 128 148 119 47
141 149 155 157 148 116 83 77 87 99 90 114 129 136 130 131 136 142 149 161 155 162 151 153 211 222 238 267 304 318 309 305 298 294 286 313 303 251 249 151 142 143 156 157 162 169 157 149 155 145 129 133 135 56
144 145 144 138 111 92 95 94 95 102 137 137 121 128 129 129 144 149 152 162 161 154 164 201 219 202 249 273 282 285 287 304 305 302 309 315 204 146 126 141 140 147 152 153 161 159 158 152 140 159 243 270 268 121
131 100 104 118 80 69 89 115 90 100 116 104 132 133 125 142 136 150 162 170 181 207 221 224 227 257 266 286 257 274 298 298 303 301 286 150 145 120 141 137 138 150 161 162 157 171 193 186 151 105 108 78 28 148
111 115 106 88 80 73 69 63 116 115 102 127 123 122 126 148 158 168 163 179 227 234 224 246 274 282 277 293 306 275 290 291 228 283 124 164 179 155 148 148 162 154 154 152 145 136 139 170 166 141 130 105 68 106
115 93 66 66 83 77 108 104 105 89 111 123 122 124 134 140 152 159 206 216 229 228 243 259 268 286 299 303 300 276 251 147 174 177 160 159 161 163 166 163 159 164 168 178 162 180 190 176 179 208 201 196 118 84
102 68 71 67 69 101 124 84 90 102 110 126 139 136 154 141 161 209 237 204 183 200 281 291 287 296 302 293 284 267 217 175 183 170 160 160 163 166 162 172 174 176 168 166 164 179 200 197 192 190 201 227 233 224
69 44 88 63 102 131 118 124 106 105 111 141 140 141 149 167 190 201 218 178 175 298 340 326 301 303 305 308 288 247 203 182 195 194 172 167 157 146 165 181 197 165 179 197 184 202 202 197 214 213 257 296 279 239
71 52 64 113 142 160 150 135 158 140 135 141 136 128 134 155 194 213 170 180 196 325 335 336 316 305 57 32 102 136 161 179 174 179 180 180 168 176 177 183 181 185 179 178 185 199 200 201 218 255 248 264 263 214
70 71 81 114 113 126 105 91 117 127 135 135 147 159 174 135 220 139 174 175 24 318 325 340 106 104 51 54 109 134 143 151 152 156 166 167 164 176 188 181 189 182 182 175 181 190 186 200 197 216 243 256 251 238
71 76 114 147 136 109 114 120 137 134 129 144 144 159 182 209 115 152 166 277 321 320 337 175 159 88 18 146 128 134 154 157 161 158 151 153 156 174 171 166 157 176 177 180 175 192 227 221 220 216 326 291 216 203
100 134 125 91 85 72 59 42 94 88 121 160 155 128 142 141 165 164 308 318 332 182 131 124 29 14 112 118 116 105 113 147 170 168 171 180 183 175 171 170 166 193 197 187 193 210 204 232 259 266 252 248 284 267
138 160 100 142 182 91 69 57 94 110 109 114 121 132 153 145 116 9 311 236 195 160 164 149 39 136 124 117 120 114 103 94 135 178 174 164 171 169 170 181 199 194 198 195 195 201 210 238 249 257 270 299 300 301
138 131 86 43 58 78 125 119 102 91 91 76 99 130 150 144 117 51 2 146 152 167 161 78 122 145 151 148 135 115 113 134 115 119 140 159 169 186 187 186 196 201 153 187 213 227 246 259 256 269 280 298 311 311
117 90 119 105 70 119 130 98 81 76 75 101 95 108 124 111 97 69 41 110 179 205 199 164 142 142 134 93 88 94 113 146 146 165 145 137 132 175 204 214 227 251 248 220 207 215 231 254 260 267 299 327 304 291
102 101 108 125 157 179 174 136 108 111 76 60 68 65 74 82 97 117 177 102 137 173 173 158 159 160 148 135 87 86 95 113 120 133 156 160 182 1 31 171 198 206 236 250 235 237 264 276 302 309 305 324 311 300